Starlink 11442

operational
NORAD ID: 62885 Int'l Des: 2025-024 Owner: SPXS Country: US Constellation: starlink
LEOCIRCULAR

关于 Starlink 11442

正在加载描述...

实时位置

正在加载3D地球...

即将过境

高度历史

Altitude vs Time

uPlot chart will show altitude changes over time

两行轨道根数

1 62885U 25024G 26036.97959810 .00253879 00000-0 19242-2 0 9991
2 62885 42.9997 12.2150 0003593 284.3337 75.7132 15.70812464 58480
Epoch: Feb 5, 2026 • Age: 8 hours

当前状态

高度 360.7 km
速度 7.70 km/s
星下点 40.66°N, 171.6°W
发射日期 Feb 4, 2025
运行时间 1 years
类型 internet

技术详情

分类 Payload
质量 960.00 kg
干质量 910.00 kg
总质量 960.00 kg
长度 0.30 m
直径 4.10 m
跨度 29.00 m
形状 Box + pan
制造商 SPXS
平台类型 Starlink V2MD
阶段状态 In Orbit
所有者/国家 SPXS/US

大型星座

Loading constellations...